Location: Sevilla
(37.3933°N, 5.9839°W)
Time: 12:07:40
(UTC+02:00)

Tiros 1 despin weight - Pass Details

Date: 28 June 2024
Orbit: 576 x 620 km, 48.2° (Epoch: 21 July)

Event Time Altitude Azimuth Distance (km) Brightness Sun altitude
Rises 19:19:42 0° 293° (WNW) 2,890 ? 26.9°
Reaches altitude 10° 19:22:21 10° 280° (W) 1,977 ? 26.4°
Maximum altitude 19:26:00 24° 226° (SW) 1,267 ? 25.6°
Drops below altitude 10° 19:29:38 10° 172° (S) 1,952 ? 24.9°
Sets 19:32:14 0° 159° (SSE) 2,843 ? 24.4°
